owner,sensor,date,latitude,longitude,vertical_datum,sea_water_practical_salinity,qcFlag 
TCOON,ioos:station:TCOON:146:1,2014-09-01T02:30:00Z,28.1324,-97.0345,0.0,38.7,1111122 
TCOON,ioos:station:TCOON:146:1,2014-09-01T03:30:00Z,28.1324,-97.0345,0.0,38.7,1111122 
TCOON,ioos:station:TCOON:146:1,2014-09-01T04:30:00Z,28.1324,-97.0345,0.0,38.7,1111122 
TCOON,ioos:station:TCOON:146:1,2014-09-01T05:30:00Z,28.1324,-97.0345,0.0,38.7,1111122 
TCOON,ioos:station:TCOON:146:1,2014-09-01T06:30:00Z,28.1324,-97.0345,0.0,38.4,1111122 
TCOON,ioos:station:TCOON:146:1,2014-09-01T08:00:00Z,28.1324,-97.0345,0.0,38.7,1111122 
TCOON,ioos:station:TCOON:146:1,2014-09-01T11:00:00Z,28.1324,-97.0345,0.0,38.6,1111122 
TCOON,ioos:station:TCOON:146:1,2014-09-01T12:00:00Z,28.1324,-97.0345,0.0,38.6,1111122 
TCOON,ioos:station:TCOON:146:1,2014-09-01T13:00:00Z,28.1324,-97.0345,0.0,38.6,1111122 
TCOON,ioos:station:TCOON:146:1,2014-09-01T14:30:00Z,28.1324,-97.0345,0.0,38.6,1111122 
TCOON,ioos:station:TCOON:146:1,2014-09-01T15:30:00Z,28.1324,-97.0345,0.0,38.6,1111122 
TCOON,ioos:station:TCOON:146:1,2014-09-01T16:30:00Z,28.1324,-97.0345,0.0,38.6,1111122 
TCOON,ioos:station:TCOON:146:1,2014-09-01T18:00:00Z,28.1324,-97.0345,0.0,38.6,1111122 
TCOON,ioos:station:TCOON:146:1,2014-09-01T18:30:00Z,28.1324,-97.0345,0.0,38.6,1111122 
TCOON,ioos:station:TCOON:146:1,2014-09-01T20:00:00Z,28.1324,-97.0345,0.0,38.7,1111122 
TCOON,ioos:station:TCOON:146:1,2014-09-01T20:30:00Z,28.1324,-97.0345,0.0,38.7,1111122 
TCOON,ioos:station:TCOON:146:1,2014-09-01T22:00:00Z,28.1324,-97.0345,0.0,38.5,1111122 
TCOON,ioos:station:TCOON:146:1,2014-09-01T22:30:00Z,28.1324,-97.0345,0.0,38.6,1111122 
TCOON,ioos:station:TCOON:146:1,2014-09-01T23:30:00Z,28.1324,-97.0345,0.0,38.8,1111122 
TCOON,ioos:station:TCOON:146:1,2014-09-02T00:30:00Z,28.1324,-97.0345,0.0,38.7,1111122 
TCOON,ioos:station:TCOON:146:1,2014-09-02T01:30:00Z,28.1324,-97.0345,0.0,38.8,1111122 
TCOON,ioos:station:TCOON:146:1,2014-09-02T03:30:00Z,28.1324,-97.0345,0.0,38.8,1111122 
TCOON,ioos:station:TCOON:146:1,2014-09-02T05:00:00Z,28.1324,-97.0345,0.0,38.9,1111122 
TCOON,ioos:station:TCOON:146:1,2014-09-02T07:30:00Z,28.1324,-97.0345,0.0,38.8,1111122 
TCOON,ioos:station:TCOON:146:1,2014-09-02T09:00:00Z,28.1324,-97.0345,0.0,38.3,1111122 
TCOON,ioos:station:TCOON:146:1,2014-09-02T09:30:00Z,28.1324,-97.0345,0.0,38.0,1111122 
TCOON,ioos:station:TCOON:146:1,2014-09-02T10:30:00Z,28.1324,-97.0345,0.0,38.6,1111122 
TCOON,ioos:station:TCOON:146:1,2014-09-02T11:30:00Z,28.1324,-97.0345,0.0,38.1,1111122 
TCOON,ioos:station:TCOON:146:1,2014-09-02T13:00:00Z,28.1324,-97.0345,0.0,38.6,1111122 
TCOON,ioos:station:TCOON:146:1,2014-09-02T13:30:00Z,28.1324,-97.0345,0.0,38.7,1111122 
TCOON,ioos:station:TCOON:146:1,2014-09-02T15:00:00Z,28.1324,-97.0345,0.0,38.2,1111122 
TCOON,ioos:station:TCOON:146:1,2014-09-02T16:00:00Z,28.1324,-97.0345,0.0,38.3,1111122 
TCOON,ioos:station:TCOON:146:1,2014-09-02T17:30:00Z,28.1324,-97.0345,0.0,39.6,1111122 
TCOON,ioos:station:TCOON:146:1,2014-09-02T18:30:00Z,28.1324,-97.0345,0.0,39.7,1111122 
TCOON,ioos:station:TCOON:146:1,2014-09-02T20:30:00Z,28.1324,-97.0345,0.0,40.2,1111122 
TCOON,ioos:station:TCOON:146:1,2014-09-02T22:00:00Z,28.1324,-97.0345,0.0,40.4,1111122 
TCOON,ioos:station:TCOON:146:1,2014-09-03T00:30:00Z,28.1324,-97.0345,0.0,40.4,1111122 
TCOON,ioos:station:TCOON:146:1,2014-09-03T04:00:00Z,28.1324,-97.0345,0.0,40.4,1111122 
TCOON,ioos:station:TCOON:146:1,2014-09-03T04:30:00Z,28.1324,-97.0345,0.0,40.3,1111122 
TCOON,ioos:station:TCOON:146:1,2014-09-03T07:00:00Z,28.1324,-97.0345,0.0,40.3,1111122 
TCOON,ioos:station:TCOON:146:1,2014-09-03T07:30:00Z,28.1324,-97.0345,0.0,40.4,1111122 
TCOON,ioos:station:TCOON:146:1,2014-09-03T08:30:00Z,28.1324,-97.0345,0.0,40.5,1111122 
TCOON,ioos:station:TCOON:146:1,2014-09-03T10:00:00Z,28.1324,-97.0345,0.0,40.5,1111122 
TCOON,ioos:station:TCOON:146:1,2014-09-03T10:30:00Z,28.1324,-97.0345,0.0,40.5,1111122 
TCOON,ioos:station:TCOON:146:1,2014-09-03T11:30:00Z,28.1324,-97.0345,0.0,40.5,1111122 
TCOON,ioos:station:TCOON:146:1,2014-09-03T13:30:00Z,28.1324,-97.0345,0.0,40.4,1111122 
TCOON,ioos:station:TCOON:146:1,2014-09-03T14:30:00Z,28.1324,-97.0345,0.0,40.5,1111122 
TCOON,ioos:station:TCOON:146:1,2014-09-03T17:30:00Z,28.1324,-97.0345,0.0,40.8,1111122 
TCOON,ioos:station:TCOON:146:1,2014-09-03T18:30:00Z,28.1324,-97.0345,0.0,40.8,1111122 
TCOON,ioos:station:TCOON:146:1,2014-09-03T21:00:00Z,28.1324,-97.0345,0.0,40.6,1111122 
TCOON,ioos:station:TCOON:146:1,2014-09-04T03:30:00Z,28.1324,-97.0345,0.0,40.3,1111122 
TCOON,ioos:station:TCOON:146:1,2014-09-04T04:30:00Z,28.1324,-97.0345,0.0,40.5,1111122 
TCOON,ioos:station:TCOON:146:1,2014-09-04T07:30:00Z,28.1324,-97.0345,0.0,40.8,1111122 
TCOON,ioos:station:TCOON:146:1,2014-09-04T09:30:00Z,28.1324,-97.0345,0.0,40.7,1111122 
TCOON,ioos:station:TCOON:146:1,2014-09-04T10:30:00Z,28.1324,-97.0345,0.0,40.6,1111122 
TCOON,ioos:station:TCOON:146:1,2014-09-04T11:30:00Z,28.1324,-97.0345,0.0,40.6,1111122 
TCOON,ioos:station:TCOON:146:1,2014-09-04T12:30:00Z,28.1324,-97.0345,0.0,40.5,1111122 
TCOON,ioos:station:TCOON:146:1,2014-09-04T13:30:00Z,28.1324,-97.0345,0.0,40.5,1111122 
TCOON,ioos:station:TCOON:146:1,2014-09-04T15:30:00Z,28.1324,-97.0345,0.0,40.4,1111122 
TCOON,ioos:station:TCOON:146:1,2014-09-04T17:00:00Z,28.1324,-97.0345,0.0,40.5,1111122 
TCOON,ioos:station:TCOON:146:1,2014-09-04T18:00:00Z,28.1324,-97.0345,0.0,40.5,1111122 
TCOON,ioos:station:TCOON:146:1,2014-09-04T18:30:00Z,28.1324,-97.0345,0.0,40.5,1111122 
TCOON,ioos:station:TCOON:146:1,2014-09-04T19:30:00Z,28.1324,-97.0345,0.0,40.5,1111122 
TCOON,ioos:station:TCOON:146:1,2014-09-04T20:30:00Z,28.1324,-97.0345,0.0,40.6,1111122 
TCOON,ioos:station:TCOON:146:1,2014-09-04T21:30:00Z,28.1324,-97.0345,0.0,40.7,1111122 
TCOON,ioos:station:TCOON:146:1,2014-09-04T22:30:00Z,28.1324,-97.0345,0.0,40.7,1111122 
TCOON,ioos:station:TCOON:146:1,2014-09-05T01:30:00Z,28.1324,-97.0345,0.0,40.8,1111122 
TCOON,ioos:station:TCOON:146:1,2014-09-05T02:30:00Z,28.1324,-97.0345,0.0,40.8,1111122 
TCOON,ioos:station:TCOON:146:1,2014-09-05T04:00:00Z,28.1324,-97.0345,0.0,40.8,1111122 
TCOON,ioos:station:TCOON:146:1,2014-09-05T05:00:00Z,28.1324,-97.0345,0.0,40.8,1111122 
TCOON,ioos:station:TCOON:146:1,2014-09-05T07:30:00Z,28.1324,-97.0345,0.0,41.0,1111122 
TCOON,ioos:station:TCOON:146:1,2014-09-05T08:30:00Z,28.1324,-97.0345,0.0,40.8,1111122 
TCOON,ioos:station:TCOON:146:1,2014-09-05T11:30:00Z,28.1324,-97.0345,0.0,40.8,1111122 
TCOON,ioos:station:TCOON:146:1,2014-09-05T12:30:00Z,28.1324,-97.0345,0.0,40.8,1111122 
TCOON,ioos:station:TCOON:146:1,2014-09-05T14:30:00Z,28.1324,-97.0345,0.0,40.8,1111122 
TCOON,ioos:station:TCOON:146:1,2014-09-05T15:30:00Z,28.1324,-97.0345,0.0,40.7,1111122 
TCOON,ioos:station:TCOON:146:1,2014-09-05T16:30:00Z,28.1324,-97.0345,0.0,40.8,1111122 
TCOON,ioos:station:TCOON:146:1,2014-09-05T17:30:00Z,28.1324,-97.0345,0.0,37.5,1111122 
TCOON,ioos:station:TCOON:146:1,2014-09-05T18:30:00Z,28.1324,-97.0345,0.0,40.5,1111122 
TCOON,ioos:station:TCOON:146:1,2014-09-05T19:30:00Z,28.1324,-97.0345,0.0,40.7,1111122 
TCOON,ioos:station:TCOON:146:1,2014-09-05T20:30:00Z,28.1324,-97.0345,0.0,40.8,1111122 
TCOON,ioos:station:TCOON:146:1,2014-09-05T21:30:00Z,28.1324,-97.0345,0.0,40.2,1111122 
TCOON,ioos:station:TCOON:146:1,2014-09-06T08:30:00Z,28.1324,-97.0345,0.0,40.1,1111122 
TCOON,ioos:station:TCOON:146:1,2014-09-06T09:30:00Z,28.1324,-97.0345,0.0,39.4,1111122 
TCOON,ioos:station:TCOON:146:1,2014-09-06T10:30:00Z,28.1324,-97.0345,0.0,39.7,1111122 
TCOON,ioos:station:TCOON:146:1,2014-09-06T11:30:00Z,28.1324,-97.0345,0.0,39.5,1111122 
TCOON,ioos:station:TCOON:146:1,2014-09-06T13:00:00Z,28.1324,-97.0345,0.0,40.7,1111122 
TCOON,ioos:station:TCOON:146:1,2014-09-06T13:30:00Z,28.1324,-97.0345,0.0,40.7,1111122 
TCOON,ioos:station:TCOON:146:1,2014-09-06T15:00:00Z,28.1324,-97.0345,0.0,40.8,1111122 
TCOON,ioos:station:TCOON:146:1,2014-09-06T16:00:00Z,28.1324,-97.0345,0.0,40.7,1111122 
TCOON,ioos:station:TCOON:146:1,2014-09-06T16:30:00Z,28.1324,-97.0345,0.0,40.7,1111122 
TCOON,ioos:station:TCOON:146:1,2014-09-06T19:30:00Z,28.1324,-97.0345,0.0,40.5,1111122 
TCOON,ioos:station:TCOON:146:1,2014-09-07T08:30:00Z,28.1324,-97.0345,0.0,40.5,1111122 
TCOON,ioos:station:TCOON:146:1,2014-09-07T13:30:00Z,28.1324,-97.0345,0.0,40.9,1111122 
TCOON,ioos:station:TCOON:146:1,2014-09-07T14:30:00Z,28.1324,-97.0345,0.0,40.8,1111122 
TCOON,ioos:station:TCOON:146:1,2014-09-07T16:00:00Z,28.1324,-97.0345,0.0,40.8,1111122 
TCOON,ioos:station:TCOON:146:1,2014-09-07T16:30:00Z,28.1324,-97.0345,0.0,40.8,1111122 
TCOON,ioos:station:TCOON:146:1,2014-09-07T17:30:00Z,28.1324,-97.0345,0.0,40.6,1111122 
TCOON,ioos:station:TCOON:146:1,2014-09-07T20:00:00Z,28.1324,-97.0345,0.0,40.5,1111122 
TCOON,ioos:station:TCOON:146:1,2014-09-07T22:30:00Z,28.1324,-97.0345,0.0,40.3,1111122 
TCOON,ioos:station:TCOON:146:1,2014-09-08T07:00:00Z,28.1324,-97.0345,0.0,40.6,1111122 
TCOON,ioos:station:TCOON:146:1,2014-09-08T08:30:00Z,28.1324,-97.0345,0.0,40.6,1111122 
TCOON,ioos:station:TCOON:146:1,2014-09-08T09:30:00Z,28.1324,-97.0345,0.0,40.6,1111122 
TCOON,ioos:station:TCOON:146:1,2014-09-08T10:30:00Z,28.1324,-97.0345,0.0,40.7,1111122 
TCOON,ioos:station:TCOON:146:1,2014-09-08T11:30:00Z,28.1324,-97.0345,0.0,40.7,1111122 
TCOON,ioos:station:TCOON:146:1,2014-09-08T12:30:00Z,28.1324,-97.0345,0.0,40.6,1111122 
TCOON,ioos:station:TCOON:146:1,2014-09-08T14:00:00Z,28.1324,-97.0345,0.0,40.6,1111122 
TCOON,ioos:station:TCOON:146:1,2014-09-08T15:00:00Z,28.1324,-97.0345,0.0,40.6,1111122 
TCOON,ioos:station:TCOON:146:1,2014-09-08T16:30:00Z,28.1324,-97.0345,0.0,40.8,1111122 
TCOON,ioos:station:TCOON:146:1,2014-09-08T19:00:00Z,28.1324,-97.0345,0.0,40.7,1111122 
TCOON,ioos:station:TCOON:146:1,2014-09-10T13:30:00Z,28.1324,-97.0345,0.0,41.4,1111122 
TCOON,ioos:station:TCOON:146:1,2014-09-10T15:00:00Z,28.1324,-97.0345,0.0,41.3,1111122 
TCOON,ioos:station:TCOON:146:1,2014-09-10T15:30:00Z,28.1324,-97.0345,0.0,41.3,1111122 
TCOON,ioos:station:TCOON:146:1,2014-09-13T04:30:00Z,28.1324,-97.0345,0.0,41.0,1111122 
TCOON,ioos:station:TCOON:146:1,2014-09-13T07:30:00Z,28.1324,-97.0345,0.0,38.8,1111122 
TCOON,ioos:station:TCOON:146:1,2014-09-13T10:30:00Z,28.1324,-97.0345,0.0,41.2,1111122 
TCOON,ioos:station:TCOON:146:1,2014-09-13T12:30:00Z,28.1324,-97.0345,0.0,37.4,1111122 
TCOON,ioos:station:TCOON:146:1,2014-09-13T13:30:00Z,28.1324,-97.0345,0.0,40.9,1111122 
TCOON,ioos:station:TCOON:146:1,2014-09-13T14:30:00Z,28.1324,-97.0345,0.0,40.3,1111122 
TCOON,ioos:station:TCOON:146:1,2014-09-13T16:00:00Z,28.1324,-97.0345,0.0,39.8,1111122 
TCOON,ioos:station:TCOON:146:1,2014-09-13T16:30:00Z,28.1324,-97.0345,0.0,39.7,1111122 
TCOON,ioos:station:TCOON:146:1,2014-09-13T17:30:00Z,28.1324,-97.0345,0.0,40.1,1111122 
TCOON,ioos:station:TCOON:146:1,2014-09-13T18:30:00Z,28.1324,-97.0345,0.0,40.1,1111122 
TCOON,ioos:station:TCOON:146:1,2014-09-13T20:30:00Z,28.1324,-97.0345,0.0,40.1,1111122 
TCOON,ioos:station:TCOON:146:1,2014-09-13T21:30:00Z,28.1324,-97.0345,0.0,40.1,1111122 
TCOON,ioos:station:TCOON:146:1,2014-09-13T22:30:00Z,28.1324,-97.0345,0.0,40.1,1111122 
TCOON,ioos:station:TCOON:146:1,2014-09-14T00:00:00Z,28.1324,-97.0345,0.0,40.2,1111122 
TCOON,ioos:station:TCOON:146:1,2014-09-14T00:30:00Z,28.1324,-97.0345,0.0,40.3,1111122 
TCOON,ioos:station:TCOON:146:1,2014-09-14T01:30:00Z,28.1324,-97.0345,0.0,40.3,1111122 
TCOON,ioos:station:TCOON:146:1,2014-09-14T02:30:00Z,28.1324,-97.0345,0.0,40.3,1111122 
TCOON,ioos:station:TCOON:146:1,2014-09-14T03:30:00Z,28.1324,-97.0345,0.0,40.3,1111122 
TCOON,ioos:station:TCOON:146:1,2014-09-14T04:30:00Z,28.1324,-97.0345,0.0,40.2,1111122 
TCOON,ioos:station:TCOON:146:1,2014-09-14T05:30:00Z,28.1324,-97.0345,0.0,40.1,1111122 
TCOON,ioos:station:TCOON:146:1,2014-09-14T06:30:00Z,28.1324,-97.0345,0.0,40.6,1111122 
TCOON,ioos:station:TCOON:146:1,2014-09-14T08:30:00Z,28.1324,-97.0345,0.0,41.1,1111122 
TCOON,ioos:station:TCOON:146:1,2014-09-14T09:30:00Z,28.1324,-97.0345,0.0,41.2,1111122 
TCOON,ioos:station:TCOON:146:1,2014-09-14T10:30:00Z,28.1324,-97.0345,0.0,41.3,1111122 
TCOON,ioos:station:TCOON:146:1,2014-09-14T12:00:00Z,28.1324,-97.0345,0.0,41.2,1111122 
TCOON,ioos:station:TCOON:146:1,2014-09-14T12:30:00Z,28.1324,-97.0345,0.0,41.2,1111122 
TCOON,ioos:station:TCOON:146:1,2014-09-14T14:00:00Z,28.1324,-97.0345,0.0,41.2,1111122 
TCOON,ioos:station:TCOON:146:1,2014-09-14T14:30:00Z,28.1324,-97.0345,0.0,41.1,1111122 
TCOON,ioos:station:TCOON:146:1,2014-09-14T15:30:00Z,28.1324,-97.0345,0.0,35.4,1111122 
TCOON,ioos:station:TCOON:146:1,2014-09-14T16:30:00Z,28.1324,-97.0345,0.0,37.0,1111122 
TCOON,ioos:station:TCOON:146:1,2014-09-14T17:30:00Z,28.1324,-97.0345,0.0,39.3,1111122 
TCOON,ioos:station:TCOON:146:1,2014-09-14T18:30:00Z,28.1324,-97.0345,0.0,40.6,1111122 
TCOON,ioos:station:TCOON:146:1,2014-09-14T19:30:00Z,28.1324,-97.0345,0.0,40.2,1111122 
TCOON,ioos:station:TCOON:146:1,2014-09-14T21:00:00Z,28.1324,-97.0345,0.0,40.4,1111122 
TCOON,ioos:station:TCOON:146:1,2014-09-14T21:30:00Z,28.1324,-97.0345,0.0,40.5,1111122 
TCOON,ioos:station:TCOON:146:1,2014-09-14T22:30:00Z,28.1324,-97.0345,0.0,40.4,1111122 
TCOON,ioos:station:TCOON:146:1,2014-09-14T23:30:00Z,28.1324,-97.0345,0.0,40.4,1111122 
TCOON,ioos:station:TCOON:146:1,2014-09-15T00:30:00Z,28.1324,-97.0345,0.0,40.4,1111122 
TCOON,ioos:station:TCOON:146:1,2014-09-15T01:30:00Z,28.1324,-97.0345,0.0,40.2,1111122 
TCOON,ioos:station:TCOON:146:1,2014-09-15T02:30:00Z,28.1324,-97.0345,0.0,40.4,1111122 
TCOON,ioos:station:TCOON:146:1,2014-09-15T04:00:00Z,28.1324,-97.0345,0.0,40.4,1111122 
TCOON,ioos:station:TCOON:146:1,2014-09-15T05:00:00Z,28.1324,-97.0345,0.0,40.3,1111122 
TCOON,ioos:station:TCOON:146:1,2014-09-15T06:00:00Z,28.1324,-97.0345,0.0,40.3,1111122 
TCOON,ioos:station:TCOON:146:1,2014-09-15T08:30:00Z,28.1324,-97.0345,0.0,40.8,1111122 
TCOON,ioos:station:TCOON:146:1,2014-09-15T09:30:00Z,28.1324,-97.0345,0.0,40.7,1111122 
TCOON,ioos:station:TCOON:146:1,2014-09-15T10:30:00Z,28.1324,-97.0345,0.0,40.8,1111122 
TCOON,ioos:station:TCOON:146:1,2014-09-15T11:30:00Z,28.1324,-97.0345,0.0,40.9,1111122 
TCOON,ioos:station:TCOON:146:1,2014-09-15T12:30:00Z,28.1324,-97.0345,0.0,40.9,1111122 
TCOON,ioos:station:TCOON:146:1,2014-09-15T13:30:00Z,28.1324,-97.0345,0.0,40.8,1111122 
TCOON,ioos:station:TCOON:146:1,2014-09-15T14:30:00Z,28.1324,-97.0345,0.0,40.3,1111122 
TCOON,ioos:station:TCOON:146:1,2014-09-15T15:30:00Z,28.1324,-97.0345,0.0,40.4,1111122 
TCOON,ioos:station:TCOON:146:1,2014-09-15T16:30:00Z,28.1324,-97.0345,0.0,40.3,1111122 
TCOON,ioos:station:TCOON:146:1,2014-09-15T17:30:00Z,28.1324,-97.0345,0.0,40.5,1111122 
TCOON,ioos:station:TCOON:146:1,2014-09-15T18:30:00Z,28.1324,-97.0345,0.0,40.8,1111122 
TCOON,ioos:station:TCOON:146:1,2014-09-15T19:30:00Z,28.1324,-97.0345,0.0,40.6,1111122 
TCOON,ioos:station:TCOON:146:1,2014-09-15T21:00:00Z,28.1324,-97.0345,0.0,40.8,1111122 
TCOON,ioos:station:TCOON:146:1,2014-09-15T21:30:00Z,28.1324,-97.0345,0.0,40.7,1111122 
TCOON,ioos:station:TCOON:146:1,2014-09-15T22:30:00Z,28.1324,-97.0345,0.0,40.6,1111122 
TCOON,ioos:station:TCOON:146:1,2014-09-16T00:00:00Z,28.1324,-97.0345,0.0,41.0,1111122 
TCOON,ioos:station:TCOON:146:1,2014-09-16T00:30:00Z,28.1324,-97.0345,0.0,40.5,1111122 
TCOON,ioos:station:TCOON:146:1,2014-09-16T01:30:00Z,28.1324,-97.0345,0.0,40.8,1111122 
TCOON,ioos:station:TCOON:146:1,2014-09-16T03:00:00Z,28.1324,-97.0345,0.0,40.6,1111122 
TCOON,ioos:station:TCOON:146:1,2014-09-16T04:30:00Z,28.1324,-97.0345,0.0,40.7,1111122 
TCOON,ioos:station:TCOON:146:1,2014-09-16T05:30:00Z,28.1324,-97.0345,0.0,40.4,1111122 
TCOON,ioos:station:TCOON:146:1,2014-09-16T07:00:00Z,28.1324,-97.0345,0.0,40.6,1111122 
TCOON,ioos:station:TCOON:146:1,2014-09-16T08:00:00Z,28.1324,-97.0345,0.0,40.4,1111122 
TCOON,ioos:station:TCOON:146:1,2014-09-16T08:30:00Z,28.1324,-97.0345,0.0,40.3,1111122 
TCOON,ioos:station:TCOON:146:1,2014-09-16T09:30:00Z,28.1324,-97.0345,0.0,40.1,1111122 
TCOON,ioos:station:TCOON:146:1,2014-09-16T10:30:00Z,28.1324,-97.0345,0.0,39.1,1111122 
TCOON,ioos:station:TCOON:146:1,2014-09-16T11:30:00Z,28.1324,-97.0345,0.0,39.4,1111122 
TCOON,ioos:station:TCOON:146:1,2014-09-16T13:00:00Z,28.1324,-97.0345,0.0,40.3,1111122 
TCOON,ioos:station:TCOON:146:1,2014-09-16T14:00:00Z,28.1324,-97.0345,0.0,40.1,1111122 
TCOON,ioos:station:TCOON:146:1,2014-09-16T14:30:00Z,28.1324,-97.0345,0.0,39.5,1111122 
TCOON,ioos:station:TCOON:146:1,2014-09-16T16:00:00Z,28.1324,-97.0345,0.0,40.4,1111122 
TCOON,ioos:station:TCOON:146:1,2014-09-16T16:30:00Z,28.1324,-97.0345,0.0,40.3,1111122 
TCOON,ioos:station:TCOON:146:1,2014-09-16T18:30:00Z,28.1324,-97.0345,0.0,40.0,1111122 
TCOON,ioos:station:TCOON:146:1,2014-09-16T20:00:00Z,28.1324,-97.0345,0.0,39.7,1111122 
TCOON,ioos:station:TCOON:146:1,2014-09-16T23:00:00Z,28.1324,-97.0345,0.0,40.5,1111122 
TCOON,ioos:station:TCOON:146:1,2014-09-16T23:30:00Z,28.1324,-97.0345,0.0,40.4,1111122 
TCOON,ioos:station:TCOON:146:1,2014-09-17T01:00:00Z,28.1324,-97.0345,0.0,40.3,1111122 
TCOON,ioos:station:TCOON:146:1,2014-09-17T02:00:00Z,28.1324,-97.0345,0.0,40.4,1111122 
TCOON,ioos:station:TCOON:146:1,2014-09-17T02:30:00Z,28.1324,-97.0345,0.0,38.9,1111122 
TCOON,ioos:station:TCOON:146:1,2014-09-17T03:30:00Z,28.1324,-97.0345,0.0,40.4,1111122 
TCOON,ioos:station:TCOON:146:1,2014-09-17T05:00:00Z,28.1324,-97.0345,0.0,40.5,1111122 
TCOON,ioos:station:TCOON:146:1,2014-09-17T05:30:00Z,28.1324,-97.0345,0.0,40.5,1111122 
TCOON,ioos:station:TCOON:146:1,2014-09-17T07:30:00Z,28.1324,-97.0345,0.0,40.6,1111122 
TCOON,ioos:station:TCOON:146:1,2014-09-17T09:00:00Z,28.1324,-97.0345,0.0,40.5,1111122 
TCOON,ioos:station:TCOON:146:1,2014-09-17T09:30:00Z,28.1324,-97.0345,0.0,40.3,1111122 
TCOON,ioos:station:TCOON:146:1,2014-09-17T10:30:00Z,28.1324,-97.0345,0.0,40.2,1111122 
TCOON,ioos:station:TCOON:146:1,2014-09-17T12:00:00Z,28.1324,-97.0345,0.0,36.9,1111122 
TCOON,ioos:station:TCOON:146:1,2014-09-17T13:30:00Z,28.1324,-97.0345,0.0,38.8,1111122 
TCOON,ioos:station:TCOON:146:1,2014-09-17T14:30:00Z,28.1324,-97.0345,0.0,40.1,1111122 
TCOON,ioos:station:TCOON:146:1,2014-09-17T16:00:00Z,28.1324,-97.0345,0.0,40.4,1111122 
TCOON,ioos:station:TCOON:146:1,2014-09-17T16:30:00Z,28.1324,-97.0345,0.0,40.3,1111122 
TCOON,ioos:station:TCOON:146:1,2014-09-17T17:30:00Z,28.1324,-97.0345,0.0,40.2,1111122 
TCOON,ioos:station:TCOON:146:1,2014-09-17T18:30:00Z,28.1324,-97.0345,0.0,40.3,1111122 
TCOON,ioos:station:TCOON:146:1,2014-09-17T19:30:00Z,28.1324,-97.0345,0.0,40.2,1111122 
TCOON,ioos:station:TCOON:146:1,2014-09-17T21:00:00Z,28.1324,-97.0345,0.0,40.1,1111122 
TCOON,ioos:station:TCOON:146:1,2014-09-17T21:30:00Z,28.1324,-97.0345,0.0,39.4,1111122 
TCOON,ioos:station:TCOON:146:1,2014-09-17T22:30:00Z,28.1324,-97.0345,0.0,39.2,1111122 
TCOON,ioos:station:TCOON:146:1,2014-09-18T01:30:00Z,28.1324,-97.0345,0.0,40.0,1111122 
TCOON,ioos:station:TCOON:146:1,2014-09-18T03:00:00Z,28.1324,-97.0345,0.0,40.0,1111122 
TCOON,ioos:station:TCOON:146:1,2014-09-18T03:30:00Z,28.1324,-97.0345,0.0,40.0,1111122 
TCOON,ioos:station:TCOON:146:1,2014-09-18T04:30:00Z,28.1324,-97.0345,0.0,40.0,1111122 
TCOON,ioos:station:TCOON:146:1,2014-09-18T07:00:00Z,28.1324,-97.0345,0.0,40.0,1111122 
TCOON,ioos:station:TCOON:146:1,2014-09-18T08:00:00Z,28.1324,-97.0345,0.0,39.9,1111122 
TCOON,ioos:station:TCOON:146:1,2014-09-18T09:00:00Z,28.1324,-97.0345,0.0,39.8,1111122 
TCOON,ioos:station:TCOON:146:1,2014-09-18T10:30:00Z,28.1324,-97.0345,0.0,39.8,1111122 
TCOON,ioos:station:TCOON:146:1,2014-09-18T14:30:00Z,28.1324,-97.0345,0.0,39.8,1111122 
TCOON,ioos:station:TCOON:146:1,2014-09-18T15:30:00Z,28.1324,-97.0345,0.0,39.9,1111122 
TCOON,ioos:station:TCOON:146:1,2014-09-18T16:30:00Z,28.1324,-97.0345,0.0,39.9,1111122 
TCOON,ioos:station:TCOON:146:1,2014-09-18T17:30:00Z,28.1324,-97.0345,0.0,39.2,1111122 
TCOON,ioos:station:TCOON:146:1,2014-09-19T10:30:00Z,28.1324,-97.0345,0.0,39.7,1111122 
TCOON,ioos:station:TCOON:146:1,2014-09-19T12:30:00Z,28.1324,-97.0345,0.0,39.7,1111122 
TCOON,ioos:station:TCOON:146:1,2014-09-19T13:30:00Z,28.1324,-97.0345,0.0,39.7,1111122 
TCOON,ioos:station:TCOON:146:1,2014-09-19T16:00:00Z,28.1324,-97.0345,0.0,40.0,1111122 
TCOON,ioos:station:TCOON:146:1,2014-09-19T17:30:00Z,28.1324,-97.0345,0.0,40.0,1111122 
TCOON,ioos:station:TCOON:146:1,2014-09-19T19:30:00Z,28.1324,-97.0345,0.0,39.3,1111122 
TCOON,ioos:station:TCOON:146:1,2014-09-19T23:00:00Z,28.1324,-97.0345,0.0,39.5,1111122 
TCOON,ioos:station:TCOON:146:1,2014-09-19T23:30:00Z,28.1324,-97.0345,0.0,39.5,1111122 
TCOON,ioos:station:TCOON:146:1,2014-09-20T00:30:00Z,28.1324,-97.0345,0.0,39.1,1111122 
TCOON,ioos:station:TCOON:146:1,2014-09-20T02:00:00Z,28.1324,-97.0345,0.0,39.3,1111122 
TCOON,ioos:station:TCOON:146:1,2014-09-20T03:00:00Z,28.1324,-97.0345,0.0,38.0,1111122 
TCOON,ioos:station:TCOON:146:1,2014-09-20T04:30:00Z,28.1324,-97.0345,0.0,38.2,1111122 
TCOON,ioos:station:TCOON:146:1,2014-09-20T05:00:00Z,28.1324,-97.0345,0.0,38.2,1111122 
TCOON,ioos:station:TCOON:146:1,2014-09-20T06:30:00Z,28.1324,-97.0345,0.0,39.2,1111122 
TCOON,ioos:station:TCOON:146:1,2014-09-20T07:30:00Z,28.1324,-97.0345,0.0,39.7,1111122 
TCOON,ioos:station:TCOON:146:1,2014-09-20T08:30:00Z,28.1324,-97.0345,0.0,39.8,1111122 
TCOON,ioos:station:TCOON:146:1,2014-09-20T10:00:00Z,28.1324,-97.0345,0.0,38.9,1111122 
TCOON,ioos:station:TCOON:146:1,2014-09-20T12:00:00Z,28.1324,-97.0345,0.0,39.1,1111122 
TCOON,ioos:station:TCOON:146:1,2014-09-20T12:30:00Z,28.1324,-97.0345,0.0,38.7,1111122 
TCOON,ioos:station:TCOON:146:1,2014-09-20T14:00:00Z,28.1324,-97.0345,0.0,39.0,1111122 
TCOON,ioos:station:TCOON:146:1,2014-09-20T14:30:00Z,28.1324,-97.0345,0.0,38.9,1111122 
TCOON,ioos:station:TCOON:146:1,2014-09-20T15:30:00Z,28.1324,-97.0345,0.0,39.2,1111122 
TCOON,ioos:station:TCOON:146:1,2014-09-20T17:30:00Z,28.1324,-97.0345,0.0,39.3,1111122 
TCOON,ioos:station:TCOON:146:1,2014-09-20T18:30:00Z,28.1324,-97.0345,0.0,39.3,1111122 
TCOON,ioos:station:TCOON:146:1,2014-09-20T19:30:00Z,28.1324,-97.0345,0.0,39.3,1111122 
TCOON,ioos:station:TCOON:146:1,2014-09-20T20:30:00Z,28.1324,-97.0345,0.0,39.0,1111122 
TCOON,ioos:station:TCOON:146:1,2014-09-20T21:30:00Z,28.1324,-97.0345,0.0,39.1,1111122 
TCOON,ioos:station:TCOON:146:1,2014-09-20T23:00:00Z,28.1324,-97.0345,0.0,39.1,1111122 
TCOON,ioos:station:TCOON:146:1,2014-09-20T23:30:00Z,28.1324,-97.0345,0.0,39.1,1111122 
TCOON,ioos:station:TCOON:146:1,2014-09-21T01:00:00Z,28.1324,-97.0345,0.0,39.0,1111122 
TCOON,ioos:station:TCOON:146:1,2014-09-21T01:30:00Z,28.1324,-97.0345,0.0,38.3,1111122 
TCOON,ioos:station:TCOON:146:1,2014-09-21T02:30:00Z,28.1324,-97.0345,0.0,38.9,1111122 
TCOON,ioos:station:TCOON:146:1,2014-09-21T03:30:00Z,28.1324,-97.0345,0.0,38.0,1111122 
TCOON,ioos:station:TCOON:146:1,2014-09-21T05:00:00Z,28.1324,-97.0345,0.0,37.8,1111122 
TCOON,ioos:station:TCOON:146:1,2014-09-21T05:30:00Z,28.1324,-97.0345,0.0,38.5,1111122 
TCOON,ioos:station:TCOON:146:1,2014-09-21T07:00:00Z,28.1324,-97.0345,0.0,39.8,1111122 
TCOON,ioos:station:TCOON:146:1,2014-09-21T07:30:00Z,28.1324,-97.0345,0.0,39.8,1111122 
TCOON,ioos:station:TCOON:146:1,2014-09-21T09:00:00Z,28.1324,-97.0345,0.0,38.9,1111122 
TCOON,ioos:station:TCOON:146:1,2014-09-21T09:30:00Z,28.1324,-97.0345,0.0,38.9,1111122 
TCOON,ioos:station:TCOON:146:1,2014-09-21T10:30:00Z,28.1324,-97.0345,0.0,39.2,1111122 
TCOON,ioos:station:TCOON:146:1,2014-09-21T11:30:00Z,28.1324,-97.0345,0.0,39.2,1111122 
TCOON,ioos:station:TCOON:146:1,2014-09-21T12:30:00Z,28.1324,-97.0345,0.0,39.2,1111122 
TCOON,ioos:station:TCOON:146:1,2014-09-21T13:30:00Z,28.1324,-97.0345,0.0,39.0,1111122 
TCOON,ioos:station:TCOON:146:1,2014-09-21T14:30:00Z,28.1324,-97.0345,0.0,39.0,1111122 
TCOON,ioos:station:TCOON:146:1,2014-09-21T15:30:00Z,28.1324,-97.0345,0.0,38.9,1111122 
TCOON,ioos:station:TCOON:146:1,2014-09-21T16:30:00Z,28.1324,-97.0345,0.0,38.7,1111122 
TCOON,ioos:station:TCOON:146:1,2014-09-21T18:00:00Z,28.1324,-97.0345,0.0,38.7,1111122 
TCOON,ioos:station:TCOON:146:1,2014-09-21T18:30:00Z,28.1324,-97.0345,0.0,38.7,1111122 
TCOON,ioos:station:TCOON:146:1,2014-09-21T19:30:00Z,28.1324,-97.0345,0.0,38.4,1111122 